Wind_Speed
9 8 5 2 6 8 9 8 5 7 10 7 7 8 10 13 13 14 16 16 16 15 15 15 16 17 17 17 16 13 11 11 10 9 7 5 5 6 8 9 10 10 10 11
10 7 8 10 11 9 8 6 5 7 10 7 6 8 9 12 15 15 16 16 15 15 15 15 16 17 17 17 16 14 12 11 11 10 8 6 6 6 7 8 10 11 11 11
12 10 12 12 11 9 7 6 7 8 9 7 9 11 13 13 15 16 16 15 15 15 15 15 15 16 17 17 16 15 13 12 11 11 10 8 7 7 7 8 9 11 11 11
15 15 15 13 12 10 7 8 10 9 7 5 5 10 15 14 16 17 17 16 15 15 16 16 15 16 17 17 17 15 14 13 12 11 10 9 8 7 8 9 9 10 11 12
17 17 16 14 13 12 11 11 10 8 7 6 5 8 12 14 15 17 16 15 15 15 16 16 15 15 16 17 17 16 15 14 13 12 10 9 8 7 7 8 9 9 11 12
19 18 18 16 15 14 12 11 9 7 7 7 7 8 11 13 14 16 17 16 15 15 16 16 15 15 16 17 16 16 15 14 14 13 11 9 8 8 7 8 9 10 10 11
21 20 19 17 16 15 13 11 7 7 10 10 8 8 12 16 17 18 18 17 16 15 15 14 13 14 15 16 16 16 15 14 14 13 12 10 10 9 8 9 9 10 10 11
21 21 20 19 17 16 14 12 9 7 8 11 10 8 14 16 17 17 16 16 15 14 14 12 13 14 16 16 17 16 16 15 14 13 12 11 10 10 9 10 9 9 10 11
18 18 19 22 20 19 17 15 12 13 12 11 11 12 18 19 17 16 15 15 14 15 14 12 13 14 15 16 17 16 16 16 15 13 12 12 11 10 10 10 9 9 9 10
24 19 17 22 23 22 20 17 15 16 15 14 12 15 19 19 16 17 17 15 15 15 13 13 14 15 16 16 16 16 16 16 15 14 13 12 12 11 10 10 9 8 8 9
29 27 22 23 26 22 21 21 19 17 16 15 13 16 18 17 18 19 19 17 15 15 15 14 14 15 16 16 16 17 16 16 15 14 13 13 12 11 10 10 9 9 8 8
31 31 29 25 26 24 22 22 20 21 19 18 15 15 19 17 17 19 19 18 16 15 15 15 14 15 16 16 16 17 17 16 15 15 14 14 13 11 10 10 10 9 9 9
33 34 33 29 25 25 23 23 22 21 21 19 16 16 20 19 19 20 19 19 18 16 16 16 15 15 16 16 17 17 17 16 16 15 15 14 14 12 11 11 10 10 11 11
36 37 35 31 25 22 24 22 23 24 23 21 18 18 20 20 21 22 20 19 18 18 16 17 17 17 16 16 17 17 17 17 16 16 16 15 14 13 12 12 11 12 12 12
38 37 36 33 29 23 22 23 23 24 24 23 20 20 19 21 23 23 22 19 19 19 18 18 17 17 17 17 17 18 18 18 17 17 17 16 15 14 14 14 13 14 14 14
40 39 37 36 34 30 26 23 22 22 23 23 23 21 19 22 22 23 23 21 21 20 20 19 17 17 17 18 18 18 18 18 18 18 18 18 17 16 16 16 15 16 15 15
41 40 38 36 33 32 33 29 24 23 23 22 23 23 23 24 24 25 24 23 23 22 21 20 19 18 19 19 19 19 19 19 19 19 19 19 18 18 18 17 17 17 17 17
40 40 39 36 34 35 33 28 27 26 25 24 25 24 25 27 28 28 27 26 25 24 23 21 21 21 21 21 21 21 21 21 21 21 20 20 20 20 19 19 19 19 19 19
41 41 40 38 36 36 32 27 26 26 27 26 26 26 27 28 29 29 28 27 26 25 25 24 23 23 23 23 23 23 22 22 22 22 22 22 22 22 22 21 21 20 20 20
43 42 41 40 38 34 30 26 26 27 30 29 29 30 29 29 30 30 29 29 28 26 26 26 26 26 26 25 25 25 24 24 24 24 24 24 24 24 24 23 22 22 21 21
45 45 44 42 41 37 32 29 28 29 31 31 32 33 33 34 34 33 32 31 29 28 28 29 28 28 28 28 27 27 26 26 27 26 26 26 26 26 26 25 25 24 23 23
42 44 45 44 43 39 34 34 35 35 35 34 34 34 35 35 34 34 34 33 32 32 31 31 31 31 31 30 30 29 29 29 29 29 29 29 29 28 28 27 26 26 26 26
38 38 38 41 42 41 39 40 41 41 40 38 36 36 35 35 35 36 36 35 35 34 34 34 33 33 33 32 32 31 31 31 31 31 31 31 31 31 30 29 29 29 29 28
38 38 38 39 40 41 42 43 44 44 43 41 40 40 39 39 38 38 38 38 37 37 36 36 35 34 34 33 33 33 33 33 33 33 33 32 32 32 31 31 31 31 31 31
41 41 41 42 42 43 46 47 48 47 45 43 43 42 42 41 41 40 39 39 39 38 38 37 37 36 35 35 34 34 34 34 34 34 33 33 33 33 33 33 33 33 33 33
42 42 42 43 45 45 45 46 47 47 47 46 45 44 44 43 43 42 41 41 40 39 39 38 38 37 37 36 36 36 36 36 36 36 35 34 34 34 34 34 34 34 34 35
Wind_Direction
208 205 185 213 235 225 205 197 219 265 286 302 314 320 320 327 332 331 338 346 351 352 356 358 359 356 354 354 353 352 344 341 341 338 326 314 294 267 252 242 236 233 234 233
216 219 218 218 225 224 215 214 232 277 296 311 315 316 311 321 333 333 334 341 347 348 352 355 354 353 353 353 353 351 346 340 339 336 333 317 293 278 264 253 240 235 237 236
222 224 233 227 226 226 231 238 242 254 283 315 330 322 310 320 329 331 332 335 338 344 349 351 349 350 351 351 351 349 344 341 339 335 329 319 291 280 270 256 243 237 237 236
227 230 236 233 231 232 239 259 259 261 272 288 298 301 308 313 322 324 331 334 331 337 342 345 346 347 346 347 347 345 342 338 336 331 325 318 306 290 271 254 245 240 237 235
231 234 237 237 235 236 233 244 258 272 282 281 278 283 298 306 309 317 323 327 328 329 333 338 341 343 344 345 345 343 340 337 335 334 326 316 310 298 283 260 249 245 241 238
230 236 241 240 240 240 243 250 263 285 307 293 284 277 281 286 294 304 312 316 318 319 325 331 336 339 341 342 342 340 338 336 335 332 328 321 314 304 290 271 254 250 244 241
235 238 243 242 242 245 245 249 263 294 302 293 283 286 272 280 286 292 299 305 313 318 320 323 331 338 340 340 340 339 338 336 334 332 328 320 312 300 291 284 272 260 250 245
240 243 247 246 243 244 246 242 240 243 276 304 305 282 277 290 295 298 300 304 312 317 318 324 332 337 338 339 339 339 339 337 334 331 326 322 313 301 293 288 280 273 261 251
233 256 259 254 244 239 243 244 241 246 249 264 277 277 282 291 303 307 304 305 312 316 318 324 331 333 336 338 338 338 338 338 337 334 328 322 315 306 299 290 282 279 273 262
218 222 238 253 248 241 238 239 241 241 245 249 256 263 268 276 295 306 308 306 306 310 316 322 326 329 331 333 336 335 335 335 334 334 332 325 318 312 304 293 285 283 277 269
223 222 224 242 249 246 243 239 237 238 237 244 259 278 274 273 286 298 302 301 304 309 311 316 320 324 329 331 333 333 332 332 331 331 332 329 321 313 307 297 289 287 281 274
229 227 225 233 250 248 242 243 240 240 240 238 241 267 280 277 283 290 296 297 301 305 304 309 314 321 324 328 330 332 332 332 330 329 329 329 327 319 310 306 297 291 285 280
226 227 228 226 237 250 246 243 243 243 243 241 240 253 261 267 275 283 288 293 297 300 299 304 310 318 321 324 327 330 331 331 330 328 327 327 326 321 315 309 300 295 290 286
226 229 230 229 233 248 257 250 242 240 242 246 245 247 260 270 273 279 283 288 291 295 298 303 306 312 317 321 324 327 329 331 330 328 327 325 322 319 314 307 299 295 291 289
230 232 233 228 220 226 245 250 247 242 238 236 240 243 249 259 266 272 279 284 286 290 294 298 301 305 311 317 320 322 324 327 328 327 326 325 321 318 311 303 298 295 293 290
231 232 232 231 223 221 229 235 244 247 244 239 236 238 244 255 258 267 273 279 282 286 289 292 295 299 304 310 314 318 319 322 324 324 322 322 319 315 312 303 297 295 294 292
230 231 232 232 228 226 230 231 234 240 245 243 241 240 239 250 258 260 266 274 279 282 284 284 290 295 299 304 307 310 313 315 317 319 319 319 318 315 312 307 299 296 294 293
233 232 232 231 229 230 233 235 238 239 238 240 240 238 240 246 254 260 266 272 275 278 280 283 287 290 295 299 302 304 306 309 311 312 313 314 315 314 311 307 303 300 295 292
234 233 232 230 232 235 234 232 234 237 239 236 238 239 242 250 257 260 263 269 271 275 278 281 283 286 290 294 297 300 302 304 305 307 308 309 310 311 310 309 306 302 297 293
235 235 234 233 232 234 236 235 235 237 239 237 236 238 239 246 253 259 263 268 271 274 276 278 280 283 286 290 292 295 297 299 301 302 303 302 303 304 304 304 304 302 300 297
235 235 235 234 234 234 231 229 231 230 232 234 236 238 239 242 250 259 264 269 272 273 275 276 278 281 283 286 289 290 293 294 296 298 299 300 300 300 300 300 298 296 297 296
236 237 236 235 234 234 233 232 232 232 233 235 237 241 246 250 253 258 263 267 271 273 275 276 278 279 280 282 284 287 289 291 292 293 295 296 297 298 298 298 296 295 295 295
231 235 238 239 238 234 233 234 234 236 239 240 241 245 249 253 254 257 262 265 268 271 274 276 277 277 278 279 281 284 286 287 289 290 292 293 293 295 296 294 293 292 293 293
227 228 230 233 236 234 233 234 235 238 241 243 246 250 252 254 256 258 261 264 267 269 272 274 276 277 277 277 279 281 283 284 286 287 289 290 291 292 293 292 291 290 291 291
222 226 228 231 233 235 235 236 238 241 243 245 248 250 253 255 257 259 261 263 265 268 270 272 274 275 275 276 278 280 282 283 284 286 288 288 289 290 291 291 290 290 289 289
225 226 226 229 233 236 240 242 244 245 246 248 250 252 254 256 257 259 260 263 265 267 268 271 272 274 274 274 276 278 281 281 282 284 285 286 287 288 289 290 290 290 290 289
Height
5931 5934 5935 5938 5940 5940 5941 5943 5945 5945 5942 5940 5939 5938 5936 5934 5931 5928 5925 5923 5920 5918 5917 5914 5912 5910 5908 5905 5903 5902 5900 5899 5897 5896 5896 5895 5895 5896 5897 5898 5899 5900 5902 5903
5931 5932 5934 5936 5937 5938 5939 5941 5943 5943 5941 5939 5938 5937 5935 5933 5931 5928 5925 5923 5921 5918 5916 5915 5913 5910 5908 5906 5903 5901 5900 5898 5897 5896 5895 5895 5895 5895 5895 5896 5897 5899 5900 5901
5928 5932 5932 5934 5935 5936 5938 5940 5941 5941 5940 5938 5938 5937 5934 5931 5930 5928 5925 5922 5920 5918 5916 5915 5913 5911 5908 5906 5903 5901 5900 5898 5897 5896 5895 5894 5893 5894 5894 5895 5896 5897 5898 5899
5925 5928 5929 5931 5933 5934 5937 5938 5938 5938 5938 5938 5939 5938 5934 5931 5929 5927 5925 5923 5920 5917 5916 5915 5912 5911 5908 5906 5903 5901 5899 5898 5896 5895 5894 5893 5892 5892 5892 5893 5894 5895 5896 5898
5922 5925 5926 5928 5930 5932 5934 5934 5935 5935 5935 5936 5936 5937 5935 5930 5929 5927 5925 5923 5920 5918 5916 5914 5912 5910 5908 5906 5903 5901 5899 5897 5895 5894 5893 5892 5891 5891 5891 5891 5892 5893 5894 5896
5919 5921 5923 5925 5927 5929 5930 5932 5933 5933 5934 5935 5935 5936 5934 5930 5928 5926 5924 5922 5920 5917 5915 5913 5911 5910 5908 5905 5903 5901 5899 5897 5895 5893 5892 5891 5890 5890 5890 5890 5891 5891 5893 5894
5915 5917 5919 5922 5924 5926 5928 5930 5931 5932 5933 5932 5932 5933 5932 5929 5927 5925 5923 5921 5919 5917 5915 5912 5910 5909 5907 5905 5903 5900 5898 5896 5894 5892 5891 5890 5889 5888 5888 5888 5888 5889 5890 5892
5911 5914 5916 5918 5921 5923 5924 5927 5930 5932 5933 5931 5930 5931 5929 5927 5925 5923 5921 5919 5917 5915 5913 5911 5909 5908 5906 5904 5902 5900 5898 5895 5893 5891 5890 5889 5887 5887 5887 5886 5886 5887 5888 5889
5909 5912 5913 5914 5916 5919 5921 5923 5927 5929 5929 5931 5932 5930 5926 5923 5922 5921 5919 5916 5915 5914 5911 5910 5908 5907 5905 5903 5901 5899 5897 5895 5892 5890 5889 5887 5886 5885 5885 5885 5885 5885 5885 5886
5903 5908 5911 5910 5912 5914 5917 5920 5923 5924 5926 5927 5929 5928 5924 5919 5919 5918 5916 5915 5913 5911 5910 5908 5907 5906 5904 5903 5901 5898 5896 5894 5892 5890 5888 5886 5885 5884 5883 5883 5883 5883 5883 5883
5897 5901 5906 5907 5907 5910 5913 5915 5917 5920 5922 5924 5925 5924 5918 5917 5917 5916 5914 5913 5912 5909 5907 5906 5905 5905 5903 5902 5900 5898 5896 5893 5891 5889 5887 5885 5884 5882 5881 5881 5881 5881 5881 5881
5890 5894 5898 5902 5903 5905 5908 5910 5913 5915 5917 5918 5920 5923 5915 5915 5915 5913 5912 5910 5909 5908 5906 5904 5904 5903 5902 5900 5898 5896 5894 5892 5890 5888 5886 5884 5883 5881 5880 5879 5879 5879 5879 5879
5883 5886 5891 5895 5900 5900 5902 5905 5907 5910 5912 5913 5917 5919 5913 5911 5911 5910 5909 5907 5907 5906 5905 5903 5901 5901 5900 5899 5897 5895 5893 5891 5889 5887 5885 5884 5882 5880 5879 5878 5878 5877 5877 5877
5875 5878 5884 5890 5895 5898 5898 5900 5902 5904 5907 5909 5912 5913 5909 5908 5908 5907 5905 5905 5904 5903 5902 5901 5900 5899 5898 5897 5895 5893 5892 5890 5888 5886 5884 5882 5881 5879 5878 5877 5876 5875 5875 5874
5867 5871 5876 5881 5887 5891 5893 5894 5896 5898 5901 5904 5907 5907 5906 5905 5904 5902 5901 5901 5901 5900 5900 5899 5898 5897 5896 5895 5893 5892 5890 5888 5886 5884 5882 5881 5879 5877 5876 5875 5874 5873 5872 5871
5859 5863 5868 5873 5879 5883 5886 5889 5892 5893 5896 5898 5900 5900 5901 5898 5898 5897 5897 5898 5898 5897 5897 5896 5895 5894 5893 5892 5891 5889 5888 5886 5884 5882 5880 5879 5877 5875 5873 5872 5871 5869 5869 5868
5850 5856 5861 5866 5872 5876 5878 5883 5887 5889 5891 5893 5894 5896 5895 5894 5893 5892 5893 5893 5894 5893 5893 5892 5892 5891 5890 5889 5888 5886 5885 5883 5882 5880 5878 5876 5874 5872 5871 5869 5868 5867 5866 5864
5843 5848 5853 5859 5864 5867 5874 5878 5881 5882 5885 5887 5888 5889 5889 5888 5888 5888 5888 5889 5889 5889 5888 5887 5887 5887 5886 5885 5884 5883 5882 5880 5879 5877 5875 5873 5872 5870 5868 5866 5864 5863 5862 5861
5835 5840 5845 5851 5855 5860 5866 5870 5873 5876 5877 5880 5881 5882 5882 5882 5882 5881 5882 5883 5883 5884 5884 5884 5883 5883 5882 5881 5880 5879 5878 5876 5875 5873 5871 5869 5868 5866 5864 5862 5861 5859 5857 5856
5826 5831 5837 5842 5847 5852 5860 5864 5865 5868 5869 5872 5873 5874 5875 5876 5876 5875 5876 5877 5878 5878 5878 5878 5878 5877 5877 5876 5875 5874 5873 5871 5870 5868 5867 5865 5863 5861 5860 5858 5856 5855 5853 5852
5817 5822 5827 5833 5837 5843 5850 5853 5856 5859 5860 5861 5863 5864 5866 5867 5869 5869 5870 5871 5872 5872 5872 5872 5871 5871 5871 5870 5869 5868 5867 5866 5865 5863 5861 5860 5858 5856 5854 5853 5851 5850 5848 5847
5808 5813 5818 5824 5829 5837 5841 5843 5846 5846 5848 5851 5853 5855 5858 5860 5862 5863 5863 5865 5865 5866 5866 5865 5865 5865 5864 5863 5863 5862 5861 5859 5858 5857 5855 5854 5852 5850 5848 5847 5845 5844 5842 5841
5800 5806 5810 5815 5821 5826 5830 5832 5834 5836 5839 5843 5845 5848 5851 5852 5854 5855 5856 5857 5858 5858 5858 5858 5858 5857 5857 5856 5855 5854 5853 5852 5851 5850 5848 5847 5845 5843 5842 5840 5838 5837 5835 5834
5792 5796 5801 5805 5808 5813 5817 5820 5822 5826 5830 5834 5837 5840 5842 5844 5846 5847 5848 5849 5849 5850 5850 5849 5849 5849 5848 5848 5847 5846 5845 5844 5843 5842 5840 5838 5837 5836 5834 5832 5831 5829 5827 5826
5780 5785 5790 5795 5798 5801 5805 5808 5813 5817 5821 5825 5828 5830 5832 5835 5836 5838 5839 5839 5840 5840 5840 5840 5840 5840 5839 5839 5838 5838 5837 5836 5834 5833 5832 5830 5829 5827 5826 5824 5822 5821 5819 5817
5772 5776 5780 5784 5787 5791 5795 5799 5804 5807 5811 5815 5818 5821 5822 5824 5826 5828 5829 5829 5830 5831 5831 5831 5831 5830 5830 5830 5829 5829 5828 5827 5825 5824 5823 5821 5820 5819 5817 5816 5814 5812 5810 5809